This is the latest recevied weather packets stored in our database for station/object IU3NMQ-10. If no packets are shown the sender has not sent any weather packets the latest 10 day(s).
| Time | Temp. | Humidity | Pressure | Rain* | Wind** | Luminosity | Snow |
|---|---|---|---|---|---|---|---|
| 1777677093 | 15° C | 47% | 1022.9 hPa | - | - | - | - |
| 1777677060 | 15° C | 47% | 1022.9 hPa | - | - | - | - |
| 1777676345 | 15.56° C | 46% | 1022.9 hPa | - | - | - | - |
| 1777676160 | 15.56° C | 46% | 1022.7 hPa | - | - | - | - |
| 1777675259 | 15° C | 46% | 1022.9 hPa | - | - | - | - |
| 1777674381 | 15.56° C | 46% | 1022.9 hPa | - | - | - | - |
| 1777673459 | 15.56° C | 46% | 1022.7 hPa | - | - | - | - |
| 1777672562 | 15.56° C | 45% | 1022.7 hPa | - | - | - | - |
| 1777671662 | 16.11° C | 43% | 1022.5 hPa | - | - | - | - |
| 1777670762 | 16.67° C | 44% | 1022.4 hPa | - | - | - | - |
| 1777669859 | 16.67° C | 43% | 1022.3 hPa | - | - | - | - |
| 1777668959 | 16.67° C | 42% | 1022.3 hPa | - | - | - | - |
| 1777668058 | 17.22° C | 41% | 1022.2 hPa | - | - | - | - |
| 1777667193 | 17.22° C | 39% | 1022.1 hPa | - | - | - | - |
| 1777667158 | 17.22° C | 39% | 1022.1 hPa | - | - | - | - |
| 1777666258 | 17.78° C | 39% | 1022 hPa | - | - | - | - |
| 1777665358 | 18.33° C | 39% | 1021.9 hPa | - | - | - | - |
| 1777664458 | 18.33° C | 37% | 1021.8 hPa | - | - | - | - |
| 1777663592 | 18.89° C | 36% | 1021.6 hPa | - | - | - | - |
| 1777663558 | 18.89° C | 36% | 1021.6 hPa | - | - | - | - |
| 1777662658 | 19.44° C | 35% | 1021.6 hPa | - | - | - | - |
| 1777661758 | 19.44° C | 34% | 1021.3 hPa | - | - | - | - |
| 1777660857 | 20° C | 33% | 1021.3 hPa | - | - | - | - |
| 1777659960 | 20° C | 32% | 1021.1 hPa | - | - | - | - |
| 1777659277 | 20.56° C | 32% | 1020.9 hPa | - | - | - | - |
* Rain since midnight (hover to see other rain measurements)
** Current wind speed in m/s (hover to see current wind gust speed)